Погода в Пудости

Россия / Санкт-Петербург и Ленинградская область     59°36′55″N   30°02′30″E
темп.,
°C
ветер,
м/с
пор.,
м/с
влажн.,
%
обл.,
%
осадки,
мм/ч
давл.,
гПа
погр.,
м
31 июля, сб
сб3100:00+15ю4106752 0.0 997501
03:00+16ююз6136698 0.1 9951312
06:00+14юз5129498 0.8 994918
09:00+15юз6128660 1.0 995969
12:00+20з7115835 0.2 9971546
15:00+22з711410 0.3 9992089
18:00+22з594685 0.0 10001680
21:00+18ююз226667 0.0 100142
1 августа, вс
вс100:00+16юз310875 0.0 1002315
03:00+14юз399994 0.0 1003295
06:00+14ююз2995100 0.0 1003267
09:00+16ю499333 1.6 1002567
12:00+21юз576635 0.6 10021167
15:00+22юз495292 0.8 10011624
18:00+21юз612653 0.6 10021394
21:00+18зюз51175100 0.7 1003779
2 августа, пн
пн200:00+15зюз31088100 0.0 1004452
03:00+13юз3109247 0.0 1005321
06:00+13ююз289481 0.0 1005216
09:00+19юз3663100 0.0 1005830
12:00+21ююз346098 0.2 10031408
15:00+19ю2480100 1.9 1002218
18:00+15ю2498100 4.3 1001197
21:00+15зюз2399100 7.1 1000126
3 августа, вт
вт300:00+15з2497100 0.0 1000107
03:00+13зюз279830 0.1 1000179
06:00+12зюз310974 0.0 1001315
09:00+16зюз48794 0.0 1002630
12:00+20зюз574962 0.0 10021830
15:00+19з685459 0.1 10041608
18:00+17з686128 0.1 10061382
21:00+13з498439 0.1 1008618
4 августа, ср
ср400:00+13з398596 0.1 1009365
03:00+12з3880100 0.2 1010202
06:00+11зсз278511 0.1 1012150
09:00+18зсз34497 0.1 10131002
12:00+18зсз2345100 0.0 10141162
15:00+19юз2339100 0.0 10151281
18:00+19зюз224369 0.0 1015876
21:00+14ю116317 0.0 101611